Holdrege, NE

9:17 AM CST on December 07, 2016 (GMT -0600)
Brewster

Weather History for KHDE - January, 2014

Change the Weather History Date:

Thursday, January 16, 2014

  Actual Average Record
Temperature  
Mean Temperature 34 °F -  
Max Temperature 45 °F 37 °F 59 °F (1990)
Min Temperature 23 °F 13 °F -11 °F (1977)
Degree Days  
Heating Degree Days 31    
Moisture  
Dew Point 16 °F    
Average Humidity 46    
Maximum Humidity 71    
Minimum Humidity 21    
Precipitation  
Precipitation 0.00 in - - ()
Sea Level Pressure  
Sea Level Pressure 30.01 in    
Wind  
Wind Speed 18 mph (NW)    
Max Wind Speed 39 mph    
Max Gust Speed 53 mph    
Visibility 10 miles    
Events      
Averages and records for this station are not official NWS values.
T = Trace of Precipitation, MM = Missing Value Source: NWS Daily Summary

Daily Weather History Graph

Daily Weather History Graph

Search for Another Location

Airport or City:

Trip Planner

Search our weather history database for the weather conditions in past years. The results will help you decide how hot, cold, wet, or windy it might be!

Date:

Astronomy

Jan. 16, 2014 Rise Set
Actual Time 7:58 AM CST 5:36 PM CST
Civil Twilight 7:28 AM CST 6:06 PM CST
Nautical Twilight 6:54 AM CST 6:40 PM CST
Astronomical Twilight 6:22 AM CST 7:12 PM CST
Moon 6:30 PM CST (1/16) 7:52 AM CST (1/16)
Length of Visible Light 10h 38m
Length of Day
9h 38m
Full, 100% of the Moon is Illuminated
Jan 16
Full
Jan 23
Last Quarter
Jan 30
New
Feb 6
First Quarter
Feb 14
Full

Hourly Weather History & Observations

Time (CST) Temp. Windchill Dew Point Humidity Pressure Visibility Wind Dir Wind Speed Gust Speed Precip Events Conditions
12:15 AM 36.5 °F 29.7 °F 23.0 °F 58% 29.88 in 10.0 mi NW 9.2 mph - N/A   Clear
12:35 AM 34.2 °F 26.2 °F 22.1 °F 61% 29.89 in 10.0 mi NW 10.4 mph - N/A   Clear
12:55 AM 33.3 °F 25.7 °F 22.6 °F 65% 29.89 in 10.0 mi WNW 9.2 mph - N/A   Clear
1:15 AM 35.1 °F 28.6 °F 22.8 °F 61% 29.89 in 10.0 mi WNW 8.1 mph - N/A   Clear
1:35 AM 33.6 °F 26.8 °F 22.1 °F 63% 29.90 in 10.0 mi West 8.1 mph - N/A   Clear
1:55 AM 32.9 °F 25.9 °F 22.3 °F 65% 29.91 in 10.0 mi WNW 8.1 mph - N/A   Clear
2:15 AM 29.8 °F 20.9 °F 21.4 °F 71% 29.92 in 10.0 mi WNW 10.4 mph - N/A   Clear
2:35 AM 33.4 °F 26.6 °F 22.6 °F 65% 29.92 in 10.0 mi WNW 8.1 mph - N/A   Clear
2:55 AM 34.3 °F 25.9 °F 23.0 °F 63% 29.93 in 10.0 mi WNW 11.5 mph - N/A   Clear
3:15 AM 34.3 °F 25.0 °F 23.0 °F 63% 29.94 in 10.0 mi WNW 13.8 mph 18.4 mph N/A   Clear
3:35 AM 37.9 °F 28.9 °F 24.8 °F 59% 29.92 in 10.0 mi WNW 16.1 mph 23.0 mph N/A   Scattered Clouds
3:55 AM 36.9 °F 28.2 °F 24.6 °F 61% 29.91 in 10.0 mi WNW 13.8 mph - N/A   Scattered Clouds
4:15 AM 37.4 °F 27.8 °F 24.8 °F 60% 29.92 in 10.0 mi WNW 17.3 mph 23.0 mph N/A   Scattered Clouds
4:35 AM 38.5 °F 29.2 °F 25.2 °F 59% 29.92 in 10.0 mi NW 17.3 mph 24.2 mph N/A   Mostly Cloudy
4:55 AM 42.1 °F 33.1 °F 23.0 °F 47% 29.91 in 10.0 mi NW 20.7 mph 33.4 mph N/A   Mostly Cloudy
5:15 AM 41.0 °F 31.9 °F 23.0 °F 49% 29.92 in 10.0 mi NW 19.6 mph 28.8 mph N/A   Scattered Clouds
5:35 AM 39.7 °F 31.5 °F 22.5 °F 50% 29.93 in 10.0 mi NNW 15.0 mph 20.7 mph N/A   Clear
5:55 AM 39.6 °F 30.6 °F 22.1 °F 50% 29.94 in 10.0 mi NW 17.3 mph 27.6 mph N/A   Clear
6:15 AM 37.8 °F 28.3 °F 21.9 °F 53% 29.95 in 10.0 mi NNW 17.3 mph 24.2 mph N/A   Clear
6:35 AM 37.8 °F 28.0 °F 20.8 °F 51% 29.96 in 10.0 mi NNW 18.4 mph 26.5 mph N/A   Clear
6:55 AM 37.4 °F 26.1 °F 20.1 °F 50% 29.97 in 10.0 mi NW 24.2 mph 32.2 mph N/A   Clear
7:15 AM 37.4 °F 26.6 °F 18.1 °F 46% 29.97 in 10.0 mi NW 21.9 mph 28.8 mph N/A   Clear
7:35 AM 36.5 °F 26.3 °F 17.6 °F 46% 29.98 in 10.0 mi NW 18.4 mph 28.8 mph N/A   Clear
7:55 AM 34.9 °F 24.2 °F 17.6 °F 49% 29.98 in 10.0 mi WNW 18.4 mph - N/A   Clear
8:15 AM 34.7 °F 25.5 °F 17.8 °F 50% 29.98 in 10.0 mi WNW 13.8 mph - N/A   Clear
8:35 AM 33.8 °F 24.3 °F 18.5 °F 54% 29.98 in 10.0 mi West 13.8 mph - N/A   Clear
8:55 AM 35.1 °F 25.2 °F 21.7 °F 58% 29.98 in 10.0 mi WNW 16.1 mph 21.9 mph N/A   Clear
9:15 AM 37.9 °F 27.3 °F 23.2 °F 55% 29.98 in 10.0 mi WNW 21.9 mph 28.8 mph N/A   Clear
9:35 AM 39.2 °F 28.3 °F 22.1 °F 50% 29.99 in 10.0 mi WNW 25.3 mph 33.4 mph N/A   Clear
9:55 AM 40.5 °F 29.3 °F 19.8 °F 44% 29.99 in 10.0 mi NW 28.8 mph 43.7 mph N/A   Clear
10:15 AM 41.2 °F 29.0 °F 17.6 °F 39% 29.99 in 10.0 mi WNW 36.8 mph 44.9 mph N/A   Clear
10:35 AM 41.9 °F 30.4 °F 16.5 °F 36% 29.99 in 10.0 mi NW 34.5 mph 46.0 mph N/A   Clear
10:55 AM 42.4 °F 31.8 °F 15.6 °F 34% 29.99 in 10.0 mi NW 29.9 mph 43.7 mph N/A   Clear
11:15 AM 43.2 °F 32.3 °F 14.4 °F 31% 29.99 in 10.0 mi NW 33.4 mph 44.9 mph N/A   Clear
11:35 AM 43.7 °F 32.4 °F 13.1 °F 29% 29.98 in 10.0 mi NW 38.0 mph 51.8 mph N/A   Clear
11:55 AM 43.9 °F 33.4 °F 11.7 °F 27% 29.97 in 10.0 mi NW 32.2 mph 48.3 mph N/A   Scattered Clouds
12:15 PM 44.1 °F 33.0 °F 10.0 °F 25% 29.97 in 7.0 mi NW 36.8 mph 50.6 mph N/A   Clear
12:35 PM 44.6 °F 33.5 °F 8.8 °F 23% 29.96 in 7.0 mi NW 39.1 mph 51.8 mph N/A   Clear
12:55 PM 44.6 °F 34.6 °F 8.2 °F 23% 29.95 in 5.0 mi NW 31.1 mph 44.9 mph N/A   Haze
1:15 PM 44.6 °F 34.7 °F 7.7 °F 22% 29.95 in 5.0 mi NW 29.9 mph 52.9 mph N/A   Haze
1:35 PM 45.5 °F 34.9 °F 7.3 °F 21% 29.95 in 5.0 mi NNW 38.0 mph 46.0 mph N/A   Haze
1:55 PM 44.1 °F 33.0 °F 8.2 °F 23% 29.96 in 5.0 mi NNW 36.8 mph 48.3 mph N/A   Haze
2:15 PM 42.8 °F 31.1 °F 9.9 °F 26% 29.97 in 5.0 mi NNW 38.0 mph 49.5 mph N/A   Haze
2:35 PM 42.3 °F 31.4 °F 10.4 °F 27% 29.98 in 7.0 mi NNW 31.1 mph 47.2 mph N/A   Clear
2:55 PM 41.7 °F 30.8 °F 10.4 °F 28% 29.98 in 7.0 mi NNW 29.9 mph 50.6 mph N/A   Scattered Clouds
3:15 PM 40.8 °F 29.0 °F 11.5 °F 30% 29.99 in 10.0 mi NNW 33.4 mph 43.7 mph N/A   Scattered Clouds
3:35 PM 40.1 °F 29.2 °F 11.1 °F 31% 30.00 in 10.0 mi NNW 26.5 mph 46.0 mph N/A   Clear
3:55 PM 39.4 °F 27.9 °F 10.4 °F 30% 30.01 in 10.0 mi NNW 28.8 mph 46.0 mph N/A   Clear
4:15 PM 38.3 °F 26.4 °F 9.9 °F 31% 30.02 in 10.0 mi NNW 28.8 mph 43.7 mph N/A   Clear
4:35 PM 37.8 °F 25.4 °F 9.5 °F 31% 30.04 in 10.0 mi NNW 29.9 mph 43.7 mph N/A   Clear
4:55 PM 36.7 °F 23.6 °F 10.0 °F 33% 30.04 in 10.0 mi NNW 32.2 mph 44.9 mph N/A   Clear
5:15 PM 35.8 °F 22.5 °F 9.3 °F 33% 30.05 in 10.0 mi NNW 31.1 mph 43.7 mph N/A   Clear
5:35 PM 35.1 °F 22.0 °F 8.6 °F 33% 30.06 in 10.0 mi NNW 28.8 mph 42.6 mph N/A   Clear
5:55 PM 33.6 °F 22.9 °F 9.0 °F 36% 30.07 in 10.0 mi NNW 17.3 mph 27.6 mph N/A   Clear
6:15 PM 32.9 °F 21.0 °F 9.7 °F 38% 30.08 in 10.0 mi NNW 20.7 mph 27.6 mph N/A   Clear
6:35 PM 32.4 °F 20.0 °F 13.1 °F 45% 30.09 in 10.0 mi NNW 21.9 mph 29.9 mph N/A   Clear
6:55 PM 32.0 °F 20.1 °F 14.2 °F 48% 30.10 in 10.0 mi NNW 19.6 mph 32.2 mph N/A   Scattered Clouds
7:15 PM 31.8 °F 19.0 °F 14.9 °F 50% 30.11 in 10.0 mi NNW 23.0 mph 28.8 mph N/A   Scattered Clouds
7:35 PM 31.5 °F 17.6 °F 15.4 °F 52% 30.12 in 10.0 mi NNW 26.5 mph 32.2 mph N/A   Clear
7:55 PM 31.5 °F 18.8 °F 14.7 °F 50% 30.13 in 10.0 mi NNW 21.9 mph 34.5 mph N/A   Scattered Clouds
8:15 PM 30.6 °F 18.2 °F 14.5 °F 51% 30.13 in 10.0 mi NNW 19.6 mph 32.2 mph N/A   Scattered Clouds
8:35 PM 29.8 °F 17.7 °F 14.9 °F 54% 30.14 in 10.0 mi NW 18.4 mph 25.3 mph N/A   Clear
8:55 PM 29.3 °F 17.7 °F 15.1 °F 55% 30.14 in 10.0 mi NW 16.1 mph 24.2 mph N/A   Clear
9:15 PM 28.8 °F 17.5 °F 14.9 °F 56% 30.15 in 10.0 mi NNW 15.0 mph 21.9 mph N/A   Clear
9:35 PM 28.2 °F 17.2 °F 14.5 °F 57% 30.16 in 10.0 mi NNW 13.8 mph 18.4 mph N/A   Clear
9:55 PM 27.5 °F 15.0 °F 13.3 °F 55% 30.16 in 10.0 mi NNW 17.3 mph 21.9 mph N/A   Clear
10:15 PM 25.2 °F 16.5 °F 12.2 °F 58% 30.16 in 10.0 mi North 8.1 mph - N/A   Clear
10:35 PM 25.7 °F 13.5 °F 12.7 °F 58% 30.17 in 10.0 mi NNW 15.0 mph 20.7 mph N/A   Clear
10:55 PM 25.9 °F 12.5 °F 12.6 °F 57% 30.17 in 10.0 mi NNW 18.4 mph 25.3 mph N/A   Clear
11:15 PM 25.3 °F 13.6 °F 12.6 °F 58% 30.18 in 10.0 mi NNW 13.8 mph 24.2 mph N/A   Clear
11:35 PM 23.9 °F 13.5 °F 12.4 °F 62% 30.18 in 10.0 mi NNW 10.4 mph - N/A   Clear
11:55 PM 24.4 °F 11.5 °F 13.1 °F 62% 30.18 in 10.0 mi NNW 16.1 mph - N/A   Scattered Clouds